NJE9Y EHAM-EHEH

Flight info

Callsign NJE9Y
Flight time 0h 18m
Altitude 7000
Route LOPIK
Aircraft CL60/M-SBDE1E2E3FGHIJ1J4J5J7M3RWXYZ/LB1V1D1

Departure

Time 2026-04-29 14:42
Airport Amsterdam Airport Schiphol (EHAM)

Arrival

Time 2026-04-29 15:01
Airport Eindhoven Airport (EHEH)
Time Latitude Longitude Altitude Speed Heading
2026-04-29 14:26 52.31155 4.80391 -4 ft 0 kts 310°
2026-04-29 14:37 52.31157 4.80388 -5 ft 2 kts 311°
2026-04-29 14:37 52.31167 4.80336 -5 ft 7 kts 249°
2026-04-29 14:37 52.31131 4.80370 -5 ft 8 kts 128°
2026-04-29 14:38 52.31104 4.80393 -5 ft 5 kts 206°
2026-04-29 14:38 52.31068 4.80342 -5 ft 4 kts 221°
2026-04-29 14:38 52.31054 4.80322 -5 ft 0 kts 221°
2026-04-29 14:39 52.31053 4.80321 -5 ft 1 kts 221°
2026-04-29 14:39 52.31033 4.80287 -5 ft 5 kts 242°
2026-04-29 14:39 52.31055 4.80241 -5 ft 7 kts 309°
2026-04-29 14:39 52.31038 4.80130 -5 ft 15 kts 221°
2026-04-29 14:40 52.30940 4.79989 -5 ft 22 kts 221°
2026-04-29 14:40 52.30808 4.79798 -4 ft 27 kts 221°
2026-04-29 14:40 52.30656 4.79582 -5 ft 30 kts 220°
2026-04-29 14:40 52.30492 4.79347 -4 ft 32 kts 221°
2026-04-29 14:41 52.30312 4.79089 -5 ft 35 kts 220°
2026-04-29 14:41 52.30139 4.78839 -5 ft 25 kts 222°
2026-04-29 14:41 52.30053 4.78716 -5 ft 11 kts 222°
2026-04-29 14:41 52.30055 4.78588 -5 ft 14 kts 310°
2026-04-29 14:42 52.30111 4.78485 -5 ft 6 kts 327°
2026-04-29 14:42 52.30221 4.78613 -5 ft 57 kts 41°
2026-04-29 14:42 52.30790 4.79410 51 ft 145 kts 41°
2026-04-29 14:42 52.31649 4.80573 646 ft 176 kts 41°
2026-04-29 14:43 52.32328 4.82283 1449 ft 190 kts 80°
2026-04-29 14:43 52.32036 4.84344 2483 ft 202 kts 124°
2026-04-29 14:43 52.30846 4.85635 3528 ft 227 kts 158°
2026-04-29 14:43 52.29267 4.86352 4327 ft 245 kts 161°
2026-04-29 14:44 52.27619 4.87057 5067 ft 243 kts 161°
2026-04-29 14:44 52.25996 4.87758 5833 ft 240 kts 160°
2026-04-29 14:44 52.24391 4.88468 6586 ft 242 kts 160°
2026-04-29 14:44 52.22747 4.89206 7145 ft 245 kts 158°
2026-04-29 14:45 52.21271 4.90430 7326 ft 238 kts 138°
2026-04-29 14:45 52.19861 4.91906 7347 ft 238 kts 149°
2026-04-29 14:45 52.18361 4.93059 7347 ft 239 kts 150°
2026-04-29 14:45 52.16790 4.94274 7339 ft 260 kts 149°
2026-04-29 14:46 52.15120 4.95579 7340 ft 267 kts 149°
2026-04-29 14:46 52.13452 4.96892 7342 ft 268 kts 149°
2026-04-29 14:46 52.11760 4.98222 7343 ft 269 kts 149°
2026-04-29 14:46 52.10064 4.99557 7345 ft 269 kts 149°
2026-04-29 14:47 52.08389 5.00883 7347 ft 269 kts 149°
2026-04-29 14:47 52.06705 5.02217 7344 ft 269 kts 149°
2026-04-29 14:47 52.05006 5.03566 7345 ft 269 kts 149°
2026-04-29 14:47 52.03321 5.04896 7346 ft 269 kts 149°
2026-04-29 14:48 52.01639 5.06228 7347 ft 269 kts 149°
2026-04-29 14:48 51.99926 5.07589 7347 ft 269 kts 149°
2026-04-29 14:48 51.98257 5.08913 7345 ft 269 kts 149°
2026-04-29 14:48 51.96565 5.10253 7347 ft 269 kts 149°
2026-04-29 14:49 51.94797 5.11349 7348 ft 275 kts 166°
2026-04-29 14:49 51.92885 5.11511 7340 ft 279 kts 174°
2026-04-29 14:49 51.90926 5.11570 7339 ft 278 kts 174°
2026-04-29 14:49 51.88995 5.11639 7350 ft 279 kts 173°
2026-04-29 14:50 51.87033 5.11709 7345 ft 278 kts 174°
2026-04-29 14:50 51.85093 5.11783 7345 ft 279 kts 173°
2026-04-29 14:50 51.83150 5.11855 7343 ft 278 kts 174°
2026-04-29 14:50 51.81190 5.11924 7347 ft 279 kts 174°
2026-04-29 14:51 51.79269 5.11998 7344 ft 278 kts 173°
2026-04-29 14:51 51.77328 5.12073 7345 ft 278 kts 173°
2026-04-29 14:51 51.75380 5.12145 7347 ft 278 kts 173°
2026-04-29 14:51 51.73419 5.12216 7346 ft 278 kts 173°
2026-04-29 14:52 51.71482 5.12289 7345 ft 279 kts 173°
2026-04-29 14:52 51.69532 5.12362 7343 ft 278 kts 173°
2026-04-29 14:52 51.67584 5.12432 7347 ft 279 kts 173°
2026-04-29 14:52 51.65660 5.12500 7342 ft 278 kts 173°
2026-04-29 14:53 51.63720 5.12574 7348 ft 278 kts 173°
2026-04-29 14:53 51.61778 5.12647 7344 ft 278 kts 173°
2026-04-29 14:53 51.59829 5.12716 7346 ft 278 kts 174°
2026-04-29 14:53 51.57891 5.12792 7345 ft 278 kts 173°
2026-04-29 14:54 51.55936 5.12867 7129 ft 282 kts 173°
2026-04-29 14:54 51.53984 5.12940 6801 ft 279 kts 174°
2026-04-29 14:54 51.52052 5.13009 6436 ft 276 kts 173°
2026-04-29 14:54 51.50150 5.13079 6098 ft 273 kts 173°
2026-04-29 14:55 51.48241 5.13150 5746 ft 270 kts 173°
2026-04-29 14:55 51.46362 5.13220 5396 ft 269 kts 173°
2026-04-29 14:55 51.44510 5.13289 5059 ft 267 kts 173°
2026-04-29 14:55 51.42640 5.13358 4707 ft 266 kts 173°
2026-04-29 14:56 51.40800 5.13427 4370 ft 264 kts 173°
2026-04-29 14:56 51.38979 5.13730 3828 ft 263 kts 158°
2026-04-29 14:56 51.37439 5.15153 3425 ft 249 kts 132°
2026-04-29 14:56 51.36373 5.17242 3068 ft 242 kts 122°
2026-04-29 14:57 51.35399 5.19423 2745 ft 237 kts 121°
2026-04-29 14:57 51.34672 5.21720 2621 ft 220 kts 108°
2026-04-29 14:57 51.34116 5.23901 2526 ft 206 kts 97°
2026-04-29 14:57 51.34423 5.25982 2277 ft 200 kts 51°
2026-04-29 14:58 51.35571 5.27226 2069 ft 194 kts 31°
2026-04-29 14:58 51.36700 5.28203 1888 ft 173 kts 36°
2026-04-29 14:58 51.37633 5.29184 1654 ft 149 kts 39°
2026-04-29 14:58 51.38435 5.30068 1482 ft 131 kts 39°
2026-04-29 14:59 51.39160 5.30875 1265 ft 119 kts 40°
2026-04-29 14:59 51.39839 5.31628 1117 ft 120 kts 40°
2026-04-29 14:59 51.40525 5.32398 964 ft 120 kts 39°
2026-04-29 14:59 51.41196 5.33198 811 ft 120 kts 39°
2026-04-29 15:00 51.41886 5.33959 649 ft 120 kts 37°
2026-04-29 15:00 51.42571 5.34702 510 ft 119 kts 38°
2026-04-29 15:00 51.43258 5.35484 355 ft 120 kts 37°
2026-04-29 15:00 51.43940 5.36244 170 ft 119 kts 36°
2026-04-29 15:01 51.44595 5.36977 83 ft 103 kts 36°
2026-04-29 15:01 51.45088 5.37536 83 ft 71 kts 34°
2026-04-29 15:01 51.45344 5.37822 83 ft 16 kts 35°
2026-04-29 15:01 51.45369 5.37905 83 ft 8 kts 114°
2026-04-29 15:02 51.45332 5.37992 83 ft 9 kts 126°
2026-04-29 15:02 51.45298 5.38067 83 ft 6 kts 125°
2026-04-29 15:02 51.45267 5.38134 83 ft 8 kts 124°
2026-04-29 15:02 51.45234 5.38212 83 ft 6 kts 128°
2026-04-29 15:03 51.45186 5.38195 82 ft 10 kts 220°
2026-04-29 15:03 51.45137 5.38137 83 ft 8 kts 212°
2026-04-29 15:03 51.45086 5.38145 83 ft 9 kts 123°
2026-04-29 15:03 51.45057 5.38219 83 ft 5 kts 103°
2026-04-29 15:04 51.45067 5.38193 83 ft 6 kts 286°
2026-04-29 15:04 51.45072 5.38179 83 ft 0 kts 307°